Volver al catálogo

DELTA 1 R/B(1)

ActivoUNKNOWN
NORAD 15202·ROCKET BODY·🇺🇸 United States

Lanzado Aug 16, 1984 desde Cape Canaveral Space Force Station

Loading…

Próximos Pases (próximas 24 horas)

TLE

ActualizadoSource: Space-Track

Época: Sep 14, 2026, 11:59 UTC

1 15202U 84088D   26257.49931500  .00000288  00000-0  14179-3 0  9994
2 15202  28.9190 338.3970 1982941 310.3925  33.9373 10.82359407659569

Sigue DELTA 1 R/B(1) en tiempo real con AllMySat

Download on the App Store